Regional Weather Roundup
Issued by NWS

Home | Current Version | Previous Version | Graphics & Text | Print | Product List | Glossary On
Versions: 1 2 3 4 5 6 7 8 9 10 11 12 13 14 15 16 17 18 19 20 21 22 23 24 25 26 27 28 29 30 31 32 33 34 35 36 37 38 39 40 41 42 43 44 45 46 47 48 49 50
965
ASUS45 KPSR 250210
RWRAZ

ARIZONA HOURLY REGIONAL WEATHER ROUNDUP
NATIONAL WEATHER SERVICE PHOENIX AZ
700 PM MST TUE APR 24 2018

NOTE: FAIR INDICATES FEW OR NO CLOUDS BELOW 12,000 FEET WITH NO
SIGNIFICANT WEATHER AND/OR OBSTRUCTIONS TO VISIBILITY.

AZZ001>003-036-250300-
NORTHWEST ARIZONA

CITY           SKY/WX    TMP DP  RH WIND       PRES   REMARKS
BULLHEAD CITY  PTCLDY    97  21   6 S8        29.79S
KINGMAN        MOCLDY    82  20  10 NW7       29.98S
$$

AZZ004>008-015-016-018-250300-
NORTH CENTRAL ARIZONA

CITY           SKY/WX    TMP DP  RH WIND       PRES   REMARKS
GRAND CANYON   CLEAR     67  14  13 NW3       30.16S
WILLIAMS       PTCLDY    66  12  12 SW9G23    30.14S
PRESCOTT       MOCLDY    74  14  10 SW10      30.07S
FLAGSTAFF      PTCLDY    65  19  17 SW13      30.18R
PAYSON         PTCLDY    73  12   9 W8        30.09R
PAGE           PTCLDY    78  24  13 NE12      29.99R
$$

AZZ009>014-017-250300-
NORTHEAST ARIZONA

CITY           SKY/WX    TMP DP  RH WIND       PRES   REMARKS
WINSLOW        PTCLDY    77  16  10 SW12      30.02R
SAINT JOHNS    PTCLDY    74   6   7 SW13      30.05R
WINDOW ROCK    MOCLDY    68   6   9 W5        30.14R
SHOW LOW       PTCLDY    68   5   8 SW15      30.15R
$$

AZZ540-542>544-546-548-250300-
GREATER PHOENIX AREA

CITY           SKY/WX    TMP DP  RH WIND       PRES   REMARKS
PHOENIX        MOCLDY    93  20   7 NW12      29.82S
BUCKEYE        PTCLDY    90  25   9 W9        29.84R
GLENDALE       MOCLDY    93  21   7 SW8       29.84S
LUKE AFB       CLEAR     92  22   8 SW8       29.82R
DEER VALLEY    MOCLDY    90  20   7 SW10      29.85S
SCOTTSDALE     MOCLDY    91  25   9 W6        29.87R
MESA-FALCON    MOCLDY    91  25   9 W6        29.85S
MESA-GATEWAY   PTCLDY    91  25   9 W5        29.86R
CHANDLER       MOCLDY    93  21   7 W10       29.84R
$$

AZZ539-553-250300-
SOUTHWEST MARICOPA COUNTY AND PINAL COUNTY

CITY           SKY/WX    TMP DP  RH WIND       PRES   REMARKS
CASA GRANDE    MOCLDY    91  24   9 W6          N/A
GILA BEND      MOCLDY    93  17   6 W7        29.82R
$$

AZZ503-504-507>509-250300-
SOUTHEAST ARIZONA

CITY           SKY/WX    TMP DP  RH WIND       PRES   REMARKS
TUCSON         PTCLDY    87  17   7 MISG      29.95R
DAVIS-MONTHAN  PTCLDY    87  18   8 W9        29.93R
RYAN FIELD     CLEAR     88  19   8 W10       29.93S
NOGALES        PTCLDY    79  12   8 SW7       30.04R
SIERRA VISTA   MOCLDY    76  15  10 W12       30.08S
DOUGLAS        CLOUDY    80  18  10 W12       30.02R
SAFFORD        PTCLDY    86  10   6 NW15      29.91R
$$

AZZ532-250300-
SOUTHWEST ARIZONA

CITY           SKY/WX    TMP DP  RH WIND       PRES   REMARKS
YUMA           MOCLDY    89  45  21 W6        29.82R
$$

CAZ041-043-047-048-061-525>527-560>570-250300-
SOUTHERN CALIFORNIA

CITY           SKY/WX    TMP DP  RH WIND       PRES   REMARKS
DOWNTOWN L.A.  CLEAR     63  52  67 W3        29.98S
L.A. AIRPORT   PTCLDY    57  51  80 W8        30.00R
SAN DIEGO      MOCLDY    61  53  75 NW7       30.02F
BURBANK        CLEAR     70  47  43 S8        29.97R
ONTARIO        MOCLDY    73  46  38 SW10      29.97S
RIVERSIDE      PTCLDY    73  28  18 W9        29.97R
PALM SPRINGS   MOCLDY    93  30  10 NW15G28   29.83S
EL CENTRO NAS  MOCLDY    93  42  17 S5        29.81R
IMPERIAL       MOCLDY    93  43  17 SE12      29.78S
BLYTHE         PTCLDY    95  25   8 SW13      29.80R
NEEDLES        PTCLDY    97  15   5 SW12      29.81S
$$

NVZ020-UTZ003-250300-
SOUTHERN NEVADA-UTAH

CITY           SKY/WX    TMP DP  RH WIND       PRES   REMARKS
LAS VEGAS      CLOUDY    88  24  10 NE7       29.89S
SALT LAKE CITY CLEAR     62  35  36 NW13      30.23R
$$

NMZ009-TXZ055-250300-
NEW MEXICO-WEST TEXAS

CITY           SKY/WX    TMP DP  RH WIND       PRES   REMARKS
ALBUQUERQUE    MOCLDY    69  36  29 E26G36    30.04R
EL PASO        MOCLDY    85  17   8 W9        29.97R
$$


........................KEY........................
SKY/WX - SKY CONDITION/WEATHER
TMP    - TEMPERATURE IN FAHRENHEIT
DP     - DEW POINT IN FAHRENHEIT
RH     - RELATIVE HUMIDITY IN PERCENT
WIND   - DIRECTION AND SPEED IN MILES PER HOUR (MPH)
VRB    - VARIABLE WIND DIRECTION
PRES   - MEAN SEA LEVEL PRESSURE IN INCHES OF MERCURY
         F - FALLING PRESSURE   R - RISING PRESSURE
         S - STEADY PRESSURE
VSB    - VISIBILITY IN MILES
HX     - HEAT INDEX IN FAHRENHEIT
WCI    - WIND CHILL INDEX IN FAHRENHEIT
TC     - TEMPERATURE IN CELSIUS WHICH IS ALSO KNOWN AS
         TEMPERATURE IN CENTIGRADE
AFB    - AIR FORCE BASE
         LUKE AFB IS LUKE AIR FORCE BASE
         DAVIS-MONTHAN IS DAVIS-MONTHAN AIR FORCE BASE
NAS    - NAVAL AIR STATION
         EL CENTRO NAS IS EL CENTRO NAVAL AIR STATION
N/A    - NOT AVAILABLE





USA.gov is the U.S. government's official web portal to all federal, state and local government web resources and services.